sat.trackr.live / text

‹ back to catalog

STARLINK-31409

NORAD 59299 · 2024-056D

PAYLOAD ACTIVE UNKNOWN

§ Identity

Operator
Country
US
Launch date
2024-03-24
Launch site
AFETR
Launch vehicle
Mass (kg)
RCS (m²)

Purposes: comms

External: N2YO · Heavens-Above · Gunter

§ Orbital elements

Epoch: 2026-05-25T01:23:56.403744Z

Period
94.27 min
Inclination
43.0008°
Eccentricity
0.0001011
Mean motion
15.27581171 rev/d
Perigee alt
482.4 km
Apogee alt
483.7 km
Semi-major
6,861.2 km
B*
-3.9745e-5
RAAN
152.5260°
Arg perigee
264.2534°
Mean anomaly
95.8203°
Rev number
12,303

§ Raw data

STARLINK-314091 59299U 24056D   26145.05829171 -.00001355  00000+0 -39745-4 0  99992 59299  43.0008 152.5260 0001011 264.2534  95.8203 15.27581171123035

JSON: /api/v1/satellites/59299 · /tle

For live sub-satellite position, see the globe view (requires WebGL).

§ Visibility from observer

Set your observer location to see the next 7 days of passes ≥ 10°. The values pass through the URL so the page stays shareable.

No JS? Fill the form by hand. The geolocation button needs JavaScript.